This demonstration page uses our WeatherBlox Daily Observations layout. Learn more.

Left ArrowRight Arrow

Hourly Observations for February 5, 2016

Temp ( °F °C ) Dew Point ( °F °C ) Humidity (%) Winds ( mph kmh ) Pressure ( in mb ) Visibility ( mi km ) Precip ( " mm )
12:53 am 00:53 Clear 40 4.4 36 2.2 86 86 Calm 30.38 1029 10 16 0.00 0.00
1:53 am 01:53 Clear 40 4.4 35 1.7 83 83 Calm 30.39 1029 10 16 0.00 0.00
2:53 am 02:53 Clear 38 3.3 34 1.1 86 86 Calm 30.40 1029 10 16 0.00 0.00
3:53 am 03:53 Clear 37 2.8 32 0 82 82 Calm 30.39 1029 10 16 0.00 0.00
4:53 am 04:53 Clear 37 2.8 32 0 82 82 Calm 30.40 1029 10 16 0.00 0.00
5:53 am 05:53 Clear 35 1.7 31 -0.6 85 85 Calm 30.40 1030 10 16 0.00 0.00
6:53 am 06:53 Clear 35 1.7 31 -0.6 85 85 Calm 30.41 1030 7 11 0.00 0.00
7:53 am 07:53 Sunny 36 2.2 32 0 86 86 E 3 6 30.43 1031 10 16 0.00 0.00
8:53 am 08:53 Sunny 40 4.4 36 2.2 86 86 Calm 30.46 1031 10 16 0.00 0.00
9:53 am 09:53 Sunny 48 8.9 39 3.9 71 71 Calm 30.46 1032 10 16 0.00 0.00
10:53 am 10:53 Sunny 50 10 41 5 71 71 Calm 30.47 1032 10 16 0.00 0.00
11:53 am 11:53 Sunny 55 12.8 38 3.3 53 53 Calm 30.45 1031 10 16 0.00 0.00
12:53 pm 12:53 Sunny 57 13.9 38 3.3 49 49 Calm 30.42 1030 10 16 0.00 0.00
1:53 pm 13:53 Sunny 58 14.4 40 4.4 51 51 Calm 30.40 1029 10 16 0.00 0.00
2:53 pm 14:53 Sunny 60 15.6 35 1.7 39 39 Calm 30.39 1029 10 16 0.00 0.00
3:53 pm 15:53 Sunny 60 15.6 36 2.2 41 41 Calm 30.38 1029 10 16 0.00 0.00
4:53 pm 16:53 Sunny 58 14.4 38 3.3 48 48 Calm 30.38 1029 10 16 0.00 0.00
5:53 pm 17:53 Clear 53 11.7 39 3.9 59 59 Calm 30.40 1029 10 16 0.00 0.00
6:53 pm 18:53 Clear 51 10.6 40 4.4 66 66 Calm 30.40 1030 10 16 0.00 0.00
7:53 pm 19:53 Clear 50 10 41 5 71 71 Calm 30.41 1030 10 16 0.00 0.00
8:53 pm 20:53 Clear 50 10 40 4.4 68 68 NNW 5 7 30.43 1030 10 16 0.00 0.00
9:53 pm 21:53 Clear 48 8.9 41 5 77 77 Calm 30.42 1030 10 16 0.00 0.00
10:53 pm 22:53 Clear 47 8.3 40 4.4 77 77 NNW 3 6 30.42 1030 10 16 0.00 0.00
11:53 pm 23:53 Mostly Clear 47 8.3 42 5.6 83 83 Calm 30.41 1030 10 16 0.00 0.00

Powered by AerisWeather